Muskogee, OK

11:16 PM CDT on April 29, 2017 (GMT -0500)
Davis

Weather History for KMKO - April, 2013

Change the Weather History Date:

Thursday, April 4, 2013

  Actual Average Record
Temperature  
Mean Temperature 49 °F -  
Max Temperature 59 °F 67 °F 88 °F (2001)
Min Temperature 39 °F 45 °F 37 °F (2002)
Degree Days  
Heating Degree Days 16    
Moisture  
Dew Point 38 °F    
Average Humidity 76    
Maximum Humidity 100    
Minimum Humidity 45    
Precipitation  
Precipitation 0.69 in - - ()
Sea Level Pressure  
Sea Level Pressure 30.16 in    
Wind  
Wind Speed 8 mph (NNW)    
Max Wind Speed 15 mph    
Max Gust Speed 18 mph    
Visibility 8 miles    
Events Rain    
Averages and records for this station are not official NWS values.
T = Trace of Precipitation, MM = Missing Value Source: NWS Daily Summary

Daily Weather History Graph

Daily Weather History Graph

Search for Another Location

Airport or City:

Trip Planner

Search our weather history database for the weather conditions in past years. The results will help you decide how hot, cold, wet, or windy it might be!

Date:

Astronomy

Apr. 04, 2013 Rise Set
Actual Time 7:03 AM CDT 7:45 PM CDT
Civil Twilight 6:37 AM CDT 8:11 PM CDT
Nautical Twilight 6:07 AM CDT 8:42 PM CDT
Astronomical Twilight 5:35 AM CDT 9:13 PM CDT
Moon 3:19 AM CDT (4/4) 2:15 PM CDT (4/4)
Length of Visible Light 13h 34m
Length of Day
12h 42m
Waning Crescent, 33% of the Moon is Illuminated
Apr 4
Waning Crescent
Apr 10
New
Apr 18
First Quarter
Apr 25
Full
May 2
Last Quarter

Hourly Weather History & Observations

Time (CDT) Temp. Windchill Dew Point Humidity Pressure Visibility Wind Dir Wind Speed Gust Speed Precip Events Conditions
12:53 AM 41.0 °F 37.1 °F 39.9 °F 96% 30.20 in 4.0 mi ENE 5.8 mph - 0.24 in Rain Heavy Rain
1:53 AM 41.0 °F - 39.9 °F 96% 30.19 in 10.0 mi Calm Calm - 0.10 in Rain Light Rain
2:53 AM 41.0 °F 35.8 °F 41.0 °F 100% 30.19 in 6.0 mi NW 8.1 mph - 0.05 in Rain Light Rain
3:36 AM 41.0 °F 34.7 °F 41.0 °F 100% 30.18 in 5.0 mi NNW 10.4 mph - 0.08 in Rain Light Rain
3:53 AM 41.0 °F 35.2 °F 39.9 °F 96% 30.19 in 5.0 mi North 9.2 mph - 0.10 in Rain Light Rain
4:00 AM 41.0 °F 34.3 °F 39.2 °F 93% 30.18 in 5.0 mi NNW 11.5 mph - 0.01 in Rain Light Rain
4:12 AM 41.0 °F 34.3 °F 39.2 °F 93% 30.18 in 5.0 mi NNW 11.5 mph - 0.02 in Rain Light Rain
4:53 AM 39.9 °F 32.9 °F 37.9 °F 93% 30.19 in 5.0 mi North 11.5 mph - 0.09 in Rain Rain
5:53 AM 39.0 °F 32.8 °F 37.0 °F 93% 30.19 in 6.0 mi NNW 9.2 mph - 0.09 in Rain Light Rain
6:53 AM 39.0 °F 32.8 °F 37.9 °F 96% 30.19 in 7.0 mi North 9.2 mph - 0.01 in Rain Light Rain
7:53 AM 39.9 °F 34.5 °F 37.9 °F 93% 30.18 in 7.0 mi North 8.1 mph - 0.01 in Rain Light Rain
8:53 AM 41.0 °F 36.4 °F 39.0 °F 93% 30.18 in 10.0 mi North 6.9 mph - 0.00 in   Overcast
9:53 AM 44.1 °F 39.0 °F 39.0 °F 82% 30.18 in 10.0 mi North 9.2 mph - N/A   Overcast
10:53 AM 46.0 °F 41.9 °F 39.0 °F 76% 30.18 in 10.0 mi NNW 8.1 mph - N/A   Overcast
11:53 AM 46.9 °F - 39.0 °F 74% 30.18 in 10.0 mi NNW 8.1 mph - N/A   Overcast
12:53 PM 52.0 °F - 37.9 °F 59% 30.17 in 10.0 mi NNW 8.1 mph - N/A   Clear
1:53 PM 53.1 °F - 39.0 °F 59% 30.15 in 10.0 mi NNW 6.9 mph - N/A   Scattered Clouds
2:53 PM 55.9 °F - 37.0 °F 49% 30.13 in 10.0 mi Variable 5.8 mph 16.1 mph N/A   Mostly Cloudy
3:53 PM 59.0 °F - 37.9 °F 46% 30.10 in 10.0 mi NNW 9.2 mph - N/A   Clear
4:53 PM 57.9 °F - 37.9 °F 47% 30.10 in 10.0 mi North 15.0 mph - N/A   Clear
5:53 PM 57.9 °F - 37.9 °F 47% 30.10 in 10.0 mi North 13.8 mph 18.4 mph N/A   Clear
6:53 PM 57.0 °F - 36.0 °F 45% 30.10 in 10.0 mi NNW 8.1 mph - N/A   Clear
7:53 PM 52.0 °F - 37.9 °F 59% 30.11 in 10.0 mi NW 6.9 mph - N/A   Clear
8:53 PM 50.0 °F - 37.9 °F 63% 30.12 in 10.0 mi NW 6.9 mph - N/A   Clear
9:53 PM 48.0 °F - 37.0 °F 66% 30.16 in 10.0 mi WNW 5.8 mph - N/A   Clear
10:53 PM 46.9 °F - 37.0 °F 68% 30.16 in 10.0 mi WNW 5.8 mph - N/A   Clear
11:53 PM 46.0 °F 42.5 °F 37.0 °F 71% 30.17 in 10.0 mi WNW 6.9 mph - N/A   Clear